Location: Trebic
(49.2170°N, 15.8830°E)
Time: 14:33:57
(UTC+02:00)

Transit 4A - Pass Details

Date: 03 September 2019
Orbit: 865 x 980 km, 66.8° (Epoch: 15 September)

Event Time Altitude Azimuth Distance (km) Brightness Sun altitude
Rises 23:38:33 0° 324° (NW) 3,646 12.1 -30.9°
Reaches altitude 10° 23:41:18 10° 331° (NNW) 2,681 11.2 -31.1°
Maximum altitude 23:47:11 42° 42° (NE) 1,309 8.8 -31.4°
Enters shadow 23:47:40 41° 54° (NE) 1,320 8.7 -31.5°
Drops below altitude 10° 23:52:53 10° 112° (ESE) 2,593 - -31.7°
Sets 23:55:30 0° 120° (ESE) 3,513 - -31.9°
